owner,sensor,date,latitude,longitude,vertical_datum,wind_speed,wind_to_direction,wind_speed_of_gust,qcFlag 
LUMCON,ioos:station:LUMCON:102:1,2016-11-01T14:00:00Z,29.1870,-90.6093,0.0,5.9,101.0,-9999.0,'1111122,1111122,1111122' 
LUMCON,ioos:station:LUMCON:102:1,2016-11-01T14:15:00Z,29.1870,-90.6093,0.0,6.7,101.0,-9999.0,'1111122,1111122,1111122' 
LUMCON,ioos:station:LUMCON:102:1,2016-11-01T14:30:00Z,29.1870,-90.6093,0.0,6.8,101.0,-9999.0,'1111122,1111122,1111122' 
LUMCON,ioos:station:LUMCON:102:1,2016-11-01T14:45:00Z,29.1870,-90.6093,0.0,6.2,108.0,-9999.0,'1111122,1111122,1111122' 
LUMCON,ioos:station:LUMCON:102:1,2016-11-01T15:00:00Z,29.1870,-90.6093,0.0,5.9,99.0,-9999.0,'1111122,1111122,1111122' 
LUMCON,ioos:station:LUMCON:102:1,2016-11-01T15:15:00Z,29.1870,-90.6093,0.0,5.3,93.0,-9999.0,'1111122,1111122,1111122' 
LUMCON,ioos:station:LUMCON:102:1,2016-11-01T15:30:00Z,29.1870,-90.6093,0.0,5.7,87.0,-9999.0,'1111122,1111122,1111122' 
LUMCON,ioos:station:LUMCON:102:1,2016-11-01T15:45:00Z,29.1870,-90.6093,0.0,5.2,106.0,-9999.0,'1111122,1111122,1111122' 
LUMCON,ioos:station:LUMCON:102:1,2016-11-01T16:00:00Z,29.1870,-90.6093,0.0,5.7,119.0,-9999.0,'1111122,1111122,1111122' 
LUMCON,ioos:station:LUMCON:102:1,2016-11-01T16:15:00Z,29.1870,-90.6093,0.0,6.6,115.0,-9999.0,'1111122,1111122,1111122' 
LUMCON,ioos:station:LUMCON:102:1,2016-11-01T16:30:00Z,29.1870,-90.6093,0.0,6.5,106.0,-9999.0,'1111122,1111122,1111122' 
LUMCON,ioos:station:LUMCON:102:1,2016-11-01T16:45:00Z,29.1870,-90.6093,0.0,6.1,110.0,-9999.0,'1111122,1111122,1111122' 
LUMCON,ioos:station:LUMCON:102:1,2016-11-01T17:00:00Z,29.1870,-90.6093,0.0,7.3,117.0,-9999.0,'1111122,1111122,1111122' 
LUMCON,ioos:station:LUMCON:102:1,2016-11-01T17:30:00Z,29.1870,-90.6093,0.0,5.7,117.0,-9999.0,'1111122,1111122,1111122' 
LUMCON,ioos:station:LUMCON:102:1,2016-11-01T17:45:00Z,29.1870,-90.6093,0.0,6.8,120.0,-9999.0,'1111122,1111122,1111122' 
LUMCON,ioos:station:LUMCON:102:1,2016-11-01T18:00:00Z,29.1870,-90.6093,0.0,5.9,113.0,-9999.0,'1111122,1111122,1111122' 
LUMCON,ioos:station:LUMCON:102:1,2016-11-01T18:15:00Z,29.1870,-90.6093,0.0,5.3,104.0,-9999.0,'1111122,1111122,1111122' 
LUMCON,ioos:station:LUMCON:102:1,2016-11-01T18:30:00Z,29.1870,-90.6093,0.0,5.4,110.0,-9999.0,'1111122,1111122,1111122' 
LUMCON,ioos:station:LUMCON:102:1,2016-11-01T18:45:00Z,29.1870,-90.6093,0.0,5.7,106.0,-9999.0,'1111122,1111122,1111122' 
LUMCON,ioos:station:LUMCON:102:1,2016-11-01T19:00:00Z,29.1870,-90.6093,0.0,6.5,104.0,-9999.0,'1111122,1111122,1111122' 
LUMCON,ioos:station:LUMCON:102:1,2016-11-01T19:15:00Z,29.1870,-90.6093,0.0,5.3,101.0,-9999.0,'1111122,1111122,1111122' 
LUMCON,ioos:station:LUMCON:102:1,2016-11-01T19:30:00Z,29.1870,-90.6093,0.0,6.2,108.0,-9999.0,'1111122,1111122,1111122' 
LUMCON,ioos:station:LUMCON:102:1,2016-11-01T19:45:00Z,29.1870,-90.6093,0.0,7.7,110.0,-9999.0,'1111122,1111122,1111122' 
LUMCON,ioos:station:LUMCON:102:1,2016-11-01T20:00:00Z,29.1870,-90.6093,0.0,8.8,109.0,-9999.0,'1111122,1111122,1111122' 
LUMCON,ioos:station:LUMCON:102:1,2016-11-01T20:15:00Z,29.1870,-90.6093,0.0,7.0,110.0,-9999.0,'1111122,1111122,1111122' 
LUMCON,ioos:station:LUMCON:102:1,2016-11-01T20:30:00Z,29.1870,-90.6093,0.0,8.7,110.0,-9999.0,'1111122,1111122,1111122' 
LUMCON,ioos:station:LUMCON:102:1,2016-11-01T20:45:00Z,29.1870,-90.6093,0.0,8.0,110.0,-9999.0,'1111122,1111122,1111122' 
LUMCON,ioos:station:LUMCON:102:1,2016-11-01T21:00:00Z,29.1870,-90.6093,0.0,8.4,106.0,-9999.0,'1111122,1111122,1111122' 
LUMCON,ioos:station:LUMCON:102:1,2016-11-01T21:15:00Z,29.1870,-90.6093,0.0,8.1,108.0,-9999.0,'1111122,1111122,1111122' 
LUMCON,ioos:station:LUMCON:102:1,2016-11-01T21:30:00Z,29.1870,-90.6093,0.0,7.3,112.0,-9999.0,'1111122,1111122,1111122' 
LUMCON,ioos:station:LUMCON:102:1,2016-11-01T21:45:00Z,29.1870,-90.6093,0.0,7.9,109.0,-9999.0,'1111122,1111122,1111122' 
LUMCON,ioos:station:LUMCON:102:1,2016-11-01T22:00:00Z,29.1870,-90.6093,0.0,8.8,106.0,-9999.0,'1111122,1111122,1111122' 
LUMCON,ioos:station:LUMCON:102:1,2016-11-01T22:15:00Z,29.1870,-90.6093,0.0,9.8,109.0,-9999.0,'1111122,1111122,1111122' 
LUMCON,ioos:station:LUMCON:102:1,2016-11-01T22:30:00Z,29.1870,-90.6093,0.0,8.6,109.0,-9999.0,'1111122,1111122,1111122' 
LUMCON,ioos:station:LUMCON:102:1,2016-11-01T22:45:00Z,29.1870,-90.6093,0.0,8.6,107.0,-9999.0,'1111122,1111122,1111122' 
LUMCON,ioos:station:LUMCON:102:1,2016-11-01T23:00:00Z,29.1870,-90.6093,0.0,9.3,111.0,-9999.0,'1111122,1111122,1111122' 
LUMCON,ioos:station:LUMCON:102:1,2016-11-01T23:15:00Z,29.1870,-90.6093,0.0,10.8,113.0,-9999.0,'1111122,1111122,1111122' 
LUMCON,ioos:station:LUMCON:102:1,2016-11-01T23:30:00Z,29.1870,-90.6093,0.0,8.0,113.0,-9999.0,'1111122,1111122,1111122' 
LUMCON,ioos:station:LUMCON:102:1,2016-11-01T23:45:00Z,29.1870,-90.6093,0.0,8.7,116.0,-9999.0,'1111122,1111122,1111122' 
LUMCON,ioos:station:LUMCON:102:1,2016-11-02T00:00:00Z,29.1870,-90.6093,0.0,8.7,113.0,-9999.0,'1111122,1111122,1111122' 
LUMCON,ioos:station:LUMCON:102:1,2016-11-02T00:15:00Z,29.1870,-90.6093,0.0,9.5,107.0,-9999.0,'1111122,1111122,1111122' 
LUMCON,ioos:station:LUMCON:102:1,2016-11-02T00:30:00Z,29.1870,-90.6093,0.0,7.6,106.0,-9999.0,'1111122,1111122,1111122' 
LUMCON,ioos:station:LUMCON:102:1,2016-11-02T00:45:00Z,29.1870,-90.6093,0.0,9.0,112.0,-9999.0,'1111122,1111122,1111122' 
LUMCON,ioos:station:LUMCON:102:1,2016-11-02T17:30:00Z,29.1870,-90.6093,0.0,5.7,123.0,-9999.0,'1111122,1111122,1111122' 
LUMCON,ioos:station:LUMCON:102:1,2016-11-02T17:45:00Z,29.1870,-90.6093,0.0,5.5,121.0,-9999.0,'1111122,1111122,1111122' 
LUMCON,ioos:station:LUMCON:102:1,2016-11-02T18:00:00Z,29.1870,-90.6093,0.0,6.6,125.0,-9999.0,'1111122,1111122,1111122' 
LUMCON,ioos:station:LUMCON:102:1,2016-11-02T18:15:00Z,29.1870,-90.6093,0.0,6.0,130.0,-9999.0,'1111122,1111122,1111122' 
LUMCON,ioos:station:LUMCON:102:1,2016-11-02T18:30:00Z,29.1870,-90.6093,0.0,4.4,119.0,-9999.0,'1111122,1111122,1111122' 
LUMCON,ioos:station:LUMCON:102:1,2016-11-02T18:45:00Z,29.1870,-90.6093,0.0,4.5,114.0,-9999.0,'1111122,1111122,1111122' 
LUMCON,ioos:station:LUMCON:102:1,2016-11-02T19:00:00Z,29.1870,-90.6093,0.0,5.0,111.0,-9999.0,'1111122,1111122,1111122' 
LUMCON,ioos:station:LUMCON:102:1,2016-11-02T19:15:00Z,29.1870,-90.6093,0.0,4.6,110.0,-9999.0,'1111122,1111122,1111122' 
LUMCON,ioos:station:LUMCON:102:1,2016-11-02T19:30:00Z,29.1870,-90.6093,0.0,5.2,107.0,-9999.0,'1111122,1111122,1111122' 
LUMCON,ioos:station:LUMCON:102:1,2016-11-02T19:45:00Z,29.1870,-90.6093,0.0,5.6,115.0,-9999.0,'1111122,1111122,1111122' 
LUMCON,ioos:station:LUMCON:102:1,2016-11-02T20:00:00Z,29.1870,-90.6093,0.0,4.9,109.0,-9999.0,'1111122,1111122,1111122' 
LUMCON,ioos:station:LUMCON:102:1,2016-11-02T20:15:00Z,29.1870,-90.6093,0.0,5.2,109.0,-9999.0,'1111122,1111122,1111122' 
LUMCON,ioos:station:LUMCON:102:1,2016-11-02T20:30:00Z,29.1870,-90.6093,0.0,5.7,111.0,-9999.0,'1111122,1111122,1111122' 
LUMCON,ioos:station:LUMCON:102:1,2016-11-02T20:45:00Z,29.1870,-90.6093,0.0,4.5,98.0,-9999.0,'1111122,1111122,1111122' 
LUMCON,ioos:station:LUMCON:102:1,2016-11-02T21:00:00Z,29.1870,-90.6093,0.0,4.6,101.0,-9999.0,'1111122,1111122,1111122' 
LUMCON,ioos:station:LUMCON:102:1,2016-11-02T21:15:00Z,29.1870,-90.6093,0.0,4.7,104.0,-9999.0,'1111122,1111122,1111122' 
LUMCON,ioos:station:LUMCON:102:1,2016-11-02T21:30:00Z,29.1870,-90.6093,0.0,5.4,114.0,-9999.0,'1111122,1111122,1111122' 
LUMCON,ioos:station:LUMCON:102:1,2016-11-02T21:45:00Z,29.1870,-90.6093,0.0,5.4,114.0,-9999.0,'1111122,1111122,1111122' 
LUMCON,ioos:station:LUMCON:102:1,2016-11-02T22:00:00Z,29.1870,-90.6093,0.0,5.2,111.0,-9999.0,'1111122,1111122,1111122' 
LUMCON,ioos:station:LUMCON:102:1,2016-11-02T22:15:00Z,29.1870,-90.6093,0.0,6.4,113.0,-9999.0,'1111122,1111122,1111122' 
LUMCON,ioos:station:LUMCON:102:1,2016-11-02T22:30:00Z,29.1870,-90.6093,0.0,6.4,113.0,-9999.0,'1111122,1111122,1111122' 
LUMCON,ioos:station:LUMCON:102:1,2016-11-02T22:45:00Z,29.1870,-90.6093,0.0,7.8,114.0,-9999.0,'1111122,1111122,1111122' 
LUMCON,ioos:station:LUMCON:102:1,2016-11-02T23:00:00Z,29.1870,-90.6093,0.0,7.2,109.0,-9999.0,'1111122,1111122,1111122' 
LUMCON,ioos:station:LUMCON:102:1,2016-11-02T23:15:00Z,29.1870,-90.6093,0.0,8.2,113.0,-9999.0,'1111122,1111122,1111122' 
LUMCON,ioos:station:LUMCON:102:1,2016-11-02T23:30:00Z,29.1870,-90.6093,0.0,7.9,112.0,-9999.0,'1111122,1111122,1111122' 
LUMCON,ioos:station:LUMCON:102:1,2016-11-02T23:45:00Z,29.1870,-90.6093,0.0,6.8,110.0,-9999.0,'1111122,1111122,1111122' 
LUMCON,ioos:station:LUMCON:102:1,2016-11-03T00:00:00Z,29.1870,-90.6093,0.0,7.8,115.0,-9999.0,'1111122,1111122,1111122' 
LUMCON,ioos:station:LUMCON:102:1,2016-11-03T00:15:00Z,29.1870,-90.6093,0.0,7.1,118.0,-9999.0,'1111122,1111122,1111122' 
LUMCON,ioos:station:LUMCON:102:1,2016-11-03T00:30:00Z,29.1870,-90.6093,0.0,7.2,117.0,-9999.0,'1111122,1111122,1111122' 
LUMCON,ioos:station:LUMCON:102:1,2016-11-03T00:45:00Z,29.1870,-90.6093,0.0,7.1,114.0,-9999.0,'1111122,1111122,1111122' 
LUMCON,ioos:station:LUMCON:102:1,2016-11-03T01:00:00Z,29.1870,-90.6093,0.0,6.9,109.0,-9999.0,'1111122,1111122,1111122' 
LUMCON,ioos:station:LUMCON:102:1,2016-11-03T01:15:00Z,29.1870,-90.6093,0.0,8.1,115.0,-9999.0,'1111122,1111122,1111122' 
LUMCON,ioos:station:LUMCON:102:1,2016-11-03T01:30:00Z,29.1870,-90.6093,0.0,8.0,110.0,-9999.0,'1111122,1111122,1111122' 
LUMCON,ioos:station:LUMCON:102:1,2016-11-03T01:45:00Z,29.1870,-90.6093,0.0,7.8,108.0,-9999.0,'1111122,1111122,1111122' 
LUMCON,ioos:station:LUMCON:102:1,2016-11-03T02:00:00Z,29.1870,-90.6093,0.0,8.0,104.0,-9999.0,'1111122,1111122,1111122' 
LUMCON,ioos:station:LUMCON:102:1,2016-11-03T02:15:00Z,29.1870,-90.6093,0.0,6.9,108.0,-9999.0,'1111122,1111122,1111122' 
LUMCON,ioos:station:LUMCON:102:1,2016-11-03T02:30:00Z,29.1870,-90.6093,0.0,7.3,107.0,-9999.0,'1111122,1111122,1111122' 
LUMCON,ioos:station:LUMCON:102:1,2016-11-03T02:45:00Z,29.1870,-90.6093,0.0,6.5,105.0,-9999.0,'1111122,1111122,1111122' 
LUMCON,ioos:station:LUMCON:102:1,2016-11-03T03:00:00Z,29.1870,-90.6093,0.0,6.7,103.0,-9999.0,'1111122,1111122,1111122' 
LUMCON,ioos:station:LUMCON:102:1,2016-11-03T03:15:00Z,29.1870,-90.6093,0.0,7.0,103.0,-9999.0,'1111122,1111122,1111122' 
LUMCON,ioos:station:LUMCON:102:1,2016-11-03T03:30:00Z,29.1870,-90.6093,0.0,7.0,115.0,-9999.0,'1111122,1111122,1111122' 
LUMCON,ioos:station:LUMCON:102:1,2016-11-03T03:45:00Z,29.1870,-90.6093,0.0,8.3,117.0,-9999.0,'1111122,1111122,1111122' 
LUMCON,ioos:station:LUMCON:102:1,2016-11-03T04:00:00Z,29.1870,-90.6093,0.0,6.3,108.0,-9999.0,'1111122,1111122,1111122' 
LUMCON,ioos:station:LUMCON:102:1,2016-11-03T04:15:00Z,29.1870,-90.6093,0.0,6.4,108.0,-9999.0,'1111122,1111122,1111122' 
LUMCON,ioos:station:LUMCON:102:1,2016-11-03T04:30:00Z,29.1870,-90.6093,0.0,8.2,116.0,-9999.0,'1111122,1111122,1111122' 
LUMCON,ioos:station:LUMCON:102:1,2016-11-03T04:45:00Z,29.1870,-90.6093,0.0,6.4,106.0,-9999.0,'1111122,1111122,1111122' 
LUMCON,ioos:station:LUMCON:102:1,2016-11-03T05:00:00Z,29.1870,-90.6093,0.0,8.7,113.0,-9999.0,'1111122,1111122,1111122' 
LUMCON,ioos:station:LUMCON:102:1,2016-11-03T05:15:00Z,29.1870,-90.6093,0.0,7.7,115.0,-9999.0,'1111122,1111122,1111122' 
LUMCON,ioos:station:LUMCON:102:1,2016-11-03T05:30:00Z,29.1870,-90.6093,0.0,7.0,112.0,-9999.0,'1111122,1111122,1111122' 
LUMCON,ioos:station:LUMCON:102:1,2016-11-03T05:45:00Z,29.1870,-90.6093,0.0,6.1,116.0,-9999.0,'1111122,1111122,1111122' 
LUMCON,ioos:station:LUMCON:102:1,2016-11-03T06:00:00Z,29.1870,-90.6093,0.0,6.4,114.0,-9999.0,'1111122,1111122,1111122' 
LUMCON,ioos:station:LUMCON:102:1,2016-11-03T06:15:00Z,29.1870,-90.6093,0.0,6.0,118.0,-9999.0,'1111122,1111122,1111122' 
LUMCON,ioos:station:LUMCON:102:1,2016-11-03T06:30:00Z,29.1870,-90.6093,0.0,5.9,109.0,-9999.0,'1111122,1111122,1111122' 
LUMCON,ioos:station:LUMCON:102:1,2016-11-03T06:45:00Z,29.1870,-90.6093,0.0,5.8,109.0,-9999.0,'1111122,1111122,1111122' 
LUMCON,ioos:station:LUMCON:102:1,2016-11-03T07:00:00Z,29.1870,-90.6093,0.0,5.9,111.0,-9999.0,'1111122,1111122,1111122' 
LUMCON,ioos:station:LUMCON:102:1,2016-11-03T07:15:00Z,29.1870,-90.6093,0.0,5.3,106.0,-9999.0,'1111122,1111122,1111122' 
LUMCON,ioos:station:LUMCON:102:1,2016-11-03T07:30:00Z,29.1870,-90.6093,0.0,6.5,117.0,-9999.0,'1111122,1111122,1111122' 
LUMCON,ioos:station:LUMCON:102:1,2016-11-03T07:45:00Z,29.1870,-90.6093,0.0,5.5,116.0,-9999.0,'1111122,1111122,1111122' 
LUMCON,ioos:station:LUMCON:102:1,2016-11-03T08:00:00Z,29.1870,-90.6093,0.0,5.6,112.0,-9999.0,'1111122,1111122,1111122' 
LUMCON,ioos:station:LUMCON:102:1,2016-11-03T08:15:00Z,29.1870,-90.6093,0.0,5.1,101.0,-9999.0,'1111122,1111122,1111122' 
LUMCON,ioos:station:LUMCON:102:1,2016-11-03T08:30:00Z,29.1870,-90.6093,0.0,6.3,100.0,-9999.0,'1111122,1111122,1111122' 
LUMCON,ioos:station:LUMCON:102:1,2016-11-03T08:45:00Z,29.1870,-90.6093,0.0,5.9,102.0,-9999.0,'1111122,1111122,1111122' 
LUMCON,ioos:station:LUMCON:102:1,2016-11-03T09:00:00Z,29.1870,-90.6093,0.0,4.9,101.0,-9999.0,'1111122,1111122,1111122' 
LUMCON,ioos:station:LUMCON:102:1,2016-11-03T09:15:00Z,29.1870,-90.6093,0.0,5.0,94.0,-9999.0,'1111122,1111122,1111122' 
LUMCON,ioos:station:LUMCON:102:1,2016-11-03T09:30:00Z,29.1870,-90.6093,0.0,5.3,103.0,-9999.0,'1111122,1111122,1111122' 
LUMCON,ioos:station:LUMCON:102:1,2016-11-03T09:45:00Z,29.1870,-90.6093,0.0,5.2,101.0,-9999.0,'1111122,1111122,1111122' 
LUMCON,ioos:station:LUMCON:102:1,2016-11-03T10:00:00Z,29.1870,-90.6093,0.0,4.8,100.0,-9999.0,'1111122,1111122,1111122' 
LUMCON,ioos:station:LUMCON:102:1,2016-11-03T10:15:00Z,29.1870,-90.6093,0.0,4.8,99.0,-9999.0,'1111122,1111122,1111122' 
LUMCON,ioos:station:LUMCON:102:1,2016-11-03T10:30:00Z,29.1870,-90.6093,0.0,5.0,94.0,-9999.0,'1111122,1111122,1111122' 
LUMCON,ioos:station:LUMCON:102:1,2016-11-03T10:45:00Z,29.1870,-90.6093,0.0,4.8,98.0,-9999.0,'1111122,1111122,1111122' 
LUMCON,ioos:station:LUMCON:102:1,2016-11-03T11:00:00Z,29.1870,-90.6093,0.0,5.3,97.0,-9999.0,'1111122,1111122,1111122' 
LUMCON,ioos:station:LUMCON:102:1,2016-11-03T11:15:00Z,29.1870,-90.6093,0.0,5.3,90.0,-9999.0,'1111122,1111122,1111122' 
LUMCON,ioos:station:LUMCON:102:1,2016-11-03T11:30:00Z,29.1870,-90.6093,0.0,4.6,77.0,-9999.0,'1111122,1111122,1111122' 
LUMCON,ioos:station:LUMCON:102:1,2016-11-03T11:45:00Z,29.1870,-90.6093,0.0,5.0,78.0,-9999.0,'1111122,1111122,1111122' 
LUMCON,ioos:station:LUMCON:102:1,2016-11-03T12:00:00Z,29.1870,-90.6093,0.0,5.3,86.0,-9999.0,'1111122,1111122,1111122' 
LUMCON,ioos:station:LUMCON:102:1,2016-11-03T12:15:00Z,29.1870,-90.6093,0.0,5.0,84.0,-9999.0,'1111122,1111122,1111122' 
LUMCON,ioos:station:LUMCON:102:1,2016-11-03T12:30:00Z,29.1870,-90.6093,0.0,5.3,90.0,-9999.0,'1111122,1111122,1111122' 
LUMCON,ioos:station:LUMCON:102:1,2016-11-03T12:45:00Z,29.1870,-90.6093,0.0,5.5,86.0,-9999.0,'1111122,1111122,1111122' 
LUMCON,ioos:station:LUMCON:102:1,2016-11-03T13:00:00Z,29.1870,-90.6093,0.0,5.1,66.0,-9999.0,'1111122,1111122,1111122' 
LUMCON,ioos:station:LUMCON:102:1,2016-11-03T13:15:00Z,29.1870,-90.6093,0.0,5.7,54.0,-9999.0,'1111122,1111122,1111122' 
LUMCON,ioos:station:LUMCON:102:1,2016-11-03T13:30:00Z,29.1870,-90.6093,0.0,6.3,55.0,-9999.0,'1111122,1111122,1111122' 
LUMCON,ioos:station:LUMCON:102:1,2016-11-03T13:45:00Z,29.1870,-90.6093,0.0,5.0,62.0,-9999.0,'1111122,1111122,1111122' 
LUMCON,ioos:station:LUMCON:102:1,2016-11-03T14:00:00Z,29.1870,-90.6093,0.0,6.2,56.0,-9999.0,'1111122,1111122,1111122' 
LUMCON,ioos:station:LUMCON:102:1,2016-11-03T14:15:00Z,29.1870,-90.6093,0.0,6.0,64.0,-9999.0,'1111122,1111122,1111122' 
LUMCON,ioos:station:LUMCON:102:1,2016-11-03T14:30:00Z,29.1870,-90.6093,0.0,6.3,70.0,-9999.0,'1111122,1111122,1111122' 
LUMCON,ioos:station:LUMCON:102:1,2016-11-03T14:45:00Z,29.1870,-90.6093,0.0,6.0,72.0,-9999.0,'1111122,1111122,1111122' 
LUMCON,ioos:station:LUMCON:102:1,2016-11-03T15:00:00Z,29.1870,-90.6093,0.0,6.2,81.0,-9999.0,'1111122,1111122,1111122' 
LUMCON,ioos:station:LUMCON:102:1,2016-11-03T15:15:00Z,29.1870,-90.6093,0.0,6.1,90.0,-9999.0,'1111122,1111122,1111122' 
LUMCON,ioos:station:LUMCON:102:1,2016-11-03T15:30:00Z,29.1870,-90.6093,0.0,6.1,91.0,-9999.0,'1111122,1111122,1111122' 
LUMCON,ioos:station:LUMCON:102:1,2016-11-03T15:45:00Z,29.1870,-90.6093,0.0,5.7,93.0,-9999.0,'1111122,1111122,1111122' 
LUMCON,ioos:station:LUMCON:102:1,2016-11-03T16:00:00Z,29.1870,-90.6093,0.0,6.1,82.0,-9999.0,'1111122,1111122,1111122' 
LUMCON,ioos:station:LUMCON:102:1,2016-11-03T16:15:00Z,29.1870,-90.6093,0.0,5.4,86.0,-9999.0,'1111122,1111122,1111122' 
LUMCON,ioos:station:LUMCON:102:1,2016-11-03T16:30:00Z,29.1870,-90.6093,0.0,6.0,90.0,-9999.0,'1111122,1111122,1111122' 
LUMCON,ioos:station:LUMCON:102:1,2016-11-03T16:45:00Z,29.1870,-90.6093,0.0,4.9,91.0,-9999.0,'1111122,1111122,1111122' 
LUMCON,ioos:station:LUMCON:102:1,2016-11-03T17:00:00Z,29.1870,-90.6093,0.0,5.1,91.0,-9999.0,'1111122,1111122,1111122' 
LUMCON,ioos:station:LUMCON:102:1,2016-11-03T17:15:00Z,29.1870,-90.6093,0.0,5.5,95.0,-9999.0,'1111122,1111122,1111122' 
LUMCON,ioos:station:LUMCON:102:1,2016-11-03T17:30:00Z,29.1870,-90.6093,0.0,4.4,90.0,-9999.0,'1111122,1111122,1111122' 
LUMCON,ioos:station:LUMCON:102:1,2016-11-03T17:45:00Z,29.1870,-90.6093,0.0,4.4,86.0,-9999.0,'1111122,1111122,1111122' 
LUMCON,ioos:station:LUMCON:102:1,2016-11-03T18:00:00Z,29.1870,-90.6093,0.0,4.1,85.0,-9999.0,'1111122,1111122,1111122' 
LUMCON,ioos:station:LUMCON:102:1,2016-11-03T18:15:00Z,29.1870,-90.6093,0.0,4.4,88.0,-9999.0,'1111122,1111122,1111122' 
LUMCON,ioos:station:LUMCON:102:1,2016-11-03T18:30:00Z,29.1870,-90.6093,0.0,4.1,77.0,-9999.0,'1111122,1111122,1111122' 
LUMCON,ioos:station:LUMCON:102:1,2016-11-03T18:45:00Z,29.1870,-90.6093,0.0,4.0,82.0,-9999.0,'1111122,1111122,1111122' 
LUMCON,ioos:station:LUMCON:102:1,2016-11-03T19:00:00Z,29.1870,-90.6093,0.0,4.4,85.0,-9999.0,'1111122,1111122,1111122' 
LUMCON,ioos:station:LUMCON:102:1,2016-11-03T19:15:00Z,29.1870,-90.6093,0.0,4.7,93.0,-9999.0,'1111122,1111122,1111122' 
LUMCON,ioos:station:LUMCON:102:1,2016-11-03T19:30:00Z,29.1870,-90.6093,0.0,4.9,83.0,-9999.0,'1111122,1111122,1111122' 
LUMCON,ioos:station:LUMCON:102:1,2016-11-03T19:45:00Z,29.1870,-90.6093,0.0,4.7,88.0,-9999.0,'1111122,1111122,1111122' 
LUMCON,ioos:station:LUMCON:102:1,2016-11-03T20:00:00Z,29.1870,-90.6093,0.0,5.0,94.0,-9999.0,'1111122,1111122,1111122' 
LUMCON,ioos:station:LUMCON:102:1,2016-11-03T20:15:00Z,29.1870,-90.6093,0.0,4.8,83.0,-9999.0,'1111122,1111122,1111122' 
LUMCON,ioos:station:LUMCON:102:1,2016-11-03T20:30:00Z,29.1870,-90.6093,0.0,4.8,90.0,-9999.0,'1111122,1111122,1111122' 
LUMCON,ioos:station:LUMCON:102:1,2016-11-03T20:45:00Z,29.1870,-90.6093,0.0,4.4,90.0,-9999.0,'1111122,1111122,1111122' 
LUMCON,ioos:station:LUMCON:102:1,2016-11-03T21:00:00Z,29.1870,-90.6093,0.0,3.4,95.0,-9999.0,'1111122,1111122,1111122' 
LUMCON,ioos:station:LUMCON:102:1,2016-11-03T21:15:00Z,29.1870,-90.6093,0.0,3.4,93.0,-9999.0,'1111122,1111122,1111122' 
LUMCON,ioos:station:LUMCON:102:1,2016-11-03T21:30:00Z,29.1870,-90.6093,0.0,3.1,104.0,-9999.0,'1111122,1111122,1111122' 
LUMCON,ioos:station:LUMCON:102:1,2016-11-03T21:45:00Z,29.1870,-90.6093,0.0,3.0,106.0,-9999.0,'1111122,1111122,1111122' 
LUMCON,ioos:station:LUMCON:102:1,2016-11-03T22:00:00Z,29.1870,-90.6093,0.0,2.8,113.0,-9999.0,'1111122,1111122,1111122' 
LUMCON,ioos:station:LUMCON:102:1,2016-11-03T22:15:00Z,29.1870,-90.6093,0.0,2.9,113.0,-9999.0,'1111122,1111122,1111122' 
LUMCON,ioos:station:LUMCON:102:1,2016-11-03T22:30:00Z,29.1870,-90.6093,0.0,3.1,120.0,-9999.0,'1111122,1111122,1111122' 
LUMCON,ioos:station:LUMCON:102:1,2016-11-03T22:45:00Z,29.1870,-90.6093,0.0,3.8,107.0,-9999.0,'1111122,1111122,1111122' 
LUMCON,ioos:station:LUMCON:102:1,2016-11-03T23:00:00Z,29.1870,-90.6093,0.0,4.5,101.0,-9999.0,'1111122,1111122,1111122' 
LUMCON,ioos:station:LUMCON:102:1,2016-11-03T23:15:00Z,29.1870,-90.6093,0.0,4.0,108.0,-9999.0,'1111122,1111122,1111122' 
LUMCON,ioos:station:LUMCON:102:1,2016-11-03T23:30:00Z,29.1870,-90.6093,0.0,4.4,108.0,-9999.0,'1111122,1111122,1111122' 
LUMCON,ioos:station:LUMCON:102:1,2016-11-03T23:45:00Z,29.1870,-90.6093,0.0,3.9,106.0,-9999.0,'1111122,1111122,1111122' 
LUMCON,ioos:station:LUMCON:102:1,2016-11-04T00:00:00Z,29.1870,-90.6093,0.0,3.7,109.0,-9999.0,'1111122,1111122,1111122' 
LUMCON,ioos:station:LUMCON:102:1,2016-11-04T00:15:00Z,29.1870,-90.6093,0.0,3.2,96.0,-9999.0,'1111122,1111122,1111122' 
LUMCON,ioos:station:LUMCON:102:1,2016-11-04T00:30:00Z,29.1870,-90.6093,0.0,3.5,89.0,-9999.0,'1111122,1111122,1111122' 
LUMCON,ioos:station:LUMCON:102:1,2016-11-04T00:45:00Z,29.1870,-90.6093,0.0,3.3,75.0,-9999.0,'1111122,1111122,1111122' 
LUMCON,ioos:station:LUMCON:102:1,2016-11-04T01:00:00Z,29.1870,-90.6093,0.0,3.3,69.0,-9999.0,'1111122,1111122,1111122' 
LUMCON,ioos:station:LUMCON:102:1,2016-11-04T01:15:00Z,29.1870,-90.6093,0.0,3.4,86.0,-9999.0,'1111122,1111122,1111122' 
LUMCON,ioos:station:LUMCON:102:1,2016-11-04T01:30:00Z,29.1870,-90.6093,0.0,3.6,81.0,-9999.0,'1111122,1111122,1111122' 
LUMCON,ioos:station:LUMCON:102:1,2016-11-04T01:45:00Z,29.1870,-90.6093,0.0,4.0,70.0,-9999.0,'1111122,1111122,1111122' 
LUMCON,ioos:station:LUMCON:102:1,2016-11-04T02:00:00Z,29.1870,-90.6093,0.0,4.5,81.0,-9999.0,'1111122,1111122,1111122' 
LUMCON,ioos:station:LUMCON:102:1,2016-11-04T02:15:00Z,29.1870,-90.6093,0.0,5.0,86.0,-9999.0,'1111122,1111122,1111122' 
LUMCON,ioos:station:LUMCON:102:1,2016-11-04T02:30:00Z,29.1870,-90.6093,0.0,4.4,90.0,-9999.0,'1111122,1111122,1111122' 
LUMCON,ioos:station:LUMCON:102:1,2016-11-04T02:45:00Z,29.1870,-90.6093,0.0,4.2,86.0,-9999.0,'1111122,1111122,1111122' 
LUMCON,ioos:station:LUMCON:102:1,2016-11-04T03:00:00Z,29.1870,-90.6093,0.0,3.6,95.0,-9999.0,'1111122,1111122,1111122' 
LUMCON,ioos:station:LUMCON:102:1,2016-11-04T03:15:00Z,29.1870,-90.6093,0.0,4.1,98.0,-9999.0,'1111122,1111122,1111122' 
LUMCON,ioos:station:LUMCON:102:1,2016-11-04T03:30:00Z,29.1870,-90.6093,0.0,4.4,96.0,-9999.0,'1111122,1111122,1111122' 
LUMCON,ioos:station:LUMCON:102:1,2016-11-04T03:45:00Z,29.1870,-90.6093,0.0,3.5,108.0,-9999.0,'1111122,1111122,1111122' 
LUMCON,ioos:station:LUMCON:102:1,2016-11-04T04:00:00Z,29.1870,-90.6093,0.0,4.3,105.0,-9999.0,'1111122,1111122,1111122' 
LUMCON,ioos:station:LUMCON:102:1,2016-11-04T04:15:00Z,29.1870,-90.6093,0.0,4.2,109.0,-9999.0,'1111122,1111122,1111122' 
LUMCON,ioos:station:LUMCON:102:1,2016-11-04T04:30:00Z,29.1870,-90.6093,0.0,4.6,117.0,-9999.0,'1111122,1111122,1111122' 
LUMCON,ioos:station:LUMCON:102:1,2016-11-04T04:45:00Z,29.1870,-90.6093,0.0,3.8,114.0,-9999.0,'1111122,1111122,1111122' 
LUMCON,ioos:station:LUMCON:102:1,2016-11-04T05:00:00Z,29.1870,-90.6093,0.0,4.2,116.0,-9999.0,'1111122,1111122,1111122' 
LUMCON,ioos:station:LUMCON:102:1,2016-11-04T05:15:00Z,29.1870,-90.6093,0.0,3.2,106.0,-9999.0,'1111122,1111122,1111122' 
LUMCON,ioos:station:LUMCON:102:1,2016-11-04T05:30:00Z,29.1870,-90.6093,0.0,2.8,101.0,-9999.0,'1111122,1111122,1111122' 
LUMCON,ioos:station:LUMCON:102:1,2016-11-04T05:45:00Z,29.1870,-90.6093,0.0,2.6,111.0,-9999.0,'1111122,1111122,1111122' 
LUMCON,ioos:station:LUMCON:102:1,2016-11-04T06:00:00Z,29.1870,-90.6093,0.0,3.0,115.0,-9999.0,'1111122,1111122,1111122' 
LUMCON,ioos:station:LUMCON:102:1,2016-11-04T06:15:00Z,29.1870,-90.6093,0.0,2.8,105.0,-9999.0,'1111122,1111122,1111122' 
LUMCON,ioos:station:LUMCON:102:1,2016-11-04T06:30:00Z,29.1870,-90.6093,0.0,2.0,109.0,-9999.0,'1111122,1111122,1111122' 
LUMCON,ioos:station:LUMCON:102:1,2016-11-04T06:45:00Z,29.1870,-90.6093,0.0,2.0,114.0,-9999.0,'1111122,1111122,1111122' 
LUMCON,ioos:station:LUMCON:102:1,2016-11-04T07:00:00Z,29.1870,-90.6093,0.0,1.6,111.0,-9999.0,'1111122,1111122,1111122' 
LUMCON,ioos:station:LUMCON:102:1,2016-11-04T07:15:00Z,29.1870,-90.6093,0.0,1.5,119.0,-9999.0,'1111122,1111122,1111122' 
LUMCON,ioos:station:LUMCON:102:1,2016-11-04T07:30:00Z,29.1870,-90.6093,0.0,1.2,105.0,-9999.0,'1111122,1111122,1111122' 
LUMCON,ioos:station:LUMCON:102:1,2016-11-04T07:45:00Z,29.1870,-90.6093,0.0,1.2,103.0,-9999.0,'1111122,1111122,1111122' 
LUMCON,ioos:station:LUMCON:102:1,2016-11-04T08:00:00Z,29.1870,-90.6093,0.0,1.2,65.0,-9999.0,'1111122,1111122,1111122' 
LUMCON,ioos:station:LUMCON:102:1,2016-11-04T08:15:00Z,29.1870,-90.6093,0.0,1.3,33.0,-9999.0,'1111122,1111122,1111122' 